Time,TemperatureF,DewpointF,PressureIn,WindDirection,WindDirectionDegrees,WindSpeedMPH,WindSpeedGustMPH,Humidity,HourlyPrecipIn,Conditions,Clouds,dailyrainin,SoftwareType,DateUTC
2013-06-14 00:03:00,70.1,0.0,29.99,NW,308,7.0,10.0,0,0.00,,,0.00,Weather View 32 v70,2013-06-14 07:03:00,
2013-06-14 00:08:00,70.1,0.0,29.99,NW,309,3.0,10.0,0,0.00,,,0.00,Weather View 32 v70,2013-06-14 07:08:00,
2013-06-14 00:13:00,70.3,0.0,29.99,WNW,287,1.0,10.0,0,0.00,,,0.00,Weather View 32 v70,2013-06-14 07:13:00,
2013-06-14 00:18:00,70.1,0.0,29.99,NW,312,3.0,10.0,0,0.00,,,0.00,Weather View 32 v70,2013-06-14 07:18:00,
2013-06-14 00:23:00,70.0,0.0,29.98,NW,309,2.0,11.0,0,0.00,,,0.00,Weather View 32 v70,2013-06-14 07:23:00,
2013-06-14 00:28:00,69.9,0.0,29.99,NW,319,4.0,11.0,0,0.00,,,0.00,Weather View 32 v70,2013-06-14 07:28:00,
2013-06-14 00:33:00,69.7,0.0,29.99,WNW,298,4.0,11.0,0,0.00,,,0.00,Weather View 32 v70,2013-06-14 07:33:00,
2013-06-14 00:38:00,69.5,0.0,29.99,West,270,2.0,11.0,0,0.00,,,0.00,Weather View 32 v70,2013-06-14 07:38:00,
2013-06-14 00:43:00,69.4,0.0,29.98,WNW,302,3.0,11.0,0,0.00,,,0.00,Weather View 32 v70,2013-06-14 07:43:00,
2013-06-14 00:48:00,69.4,0.0,29.98,NW,314,3.0,11.0,0,0.00,,,0.00,Weather View 32 v70,2013-06-14 07:48:00,
2013-06-14 00:54:00,69.4,0.0,29.98,NW,325,2.0,11.0,0,0.00,,,0.00,Weather View 32 v70,2013-06-14 07:54:00,
2013-06-14 00:59:00,69.4,0.0,29.98,West,266,3.0,11.0,0,0.00,,,0.00,Weather View 32 v70,2013-06-14 07:59:00,
2013-06-14 01:04:00,69.2,0.0,29.98,West,281,3.0,11.0,0,0.00,,,0.00,Weather View 32 v70,2013-06-14 08:04:00,
2013-06-14 01:09:00,69.3,0.0,29.98,WNW,300,6.0,11.0,0,0.00,,,0.00,Weather View 32 v70,2013-06-14 08:09:00,
2013-06-14 01:14:00,69.4,0.0,29.98,NW,316,1.0,11.0,0,0.00,,,0.00,Weather View 32 v70,2013-06-14 08:14:00,
2013-06-14 01:19:00,69.5,0.0,29.98,WNW,297,6.0,11.0,0,0.00,,,0.00,Weather View 32 v70,2013-06-14 08:19:00,
2013-06-14 01:24:00,69.4,0.0,29.98,NNW,328,6.0,10.0,0,0.00,,,0.00,Weather View 32 v70,2013-06-14 08:24:00,
2013-06-14 01:29:00,69.4,0.0,29.98,NNW,340,4.0,10.0,0,0.00,,,0.00,Weather View 32 v70,2013-06-14 08:29:00,
2013-06-14 01:34:00,69.2,0.0,29.98,West,259,4.0,10.0,0,0.00,,,0.00,Weather View 32 v70,2013-06-14 08:34:00,
2013-06-14 01:39:00,68.9,0.0,29.98,WNW,302,3.0,10.0,0,0.00,,,0.00,Weather View 32 v70,2013-06-14 08:39:00,
2013-06-14 01:44:00,69.2,0.0,29.98,NW,319,0.0,10.0,0,0.00,,,0.00,Weather View 32 v70,2013-06-14 08:44:00,
2013-06-14 01:49:00,69.0,0.0,29.98,West,277,2.0,10.0,0,0.00,,,0.00,Weather View 32 v70,2013-06-14 08:49:00,
2013-06-14 01:54:00,68.6,0.0,29.98,West,277,1.0,10.0,0,0.00,,,0.00,Weather View 32 v70,2013-06-14 08:54:00,
2013-06-14 01:59:00,68.4,0.0,29.98,West,276,2.0,10.0,0,0.00,,,0.00,Weather View 32 v70,2013-06-14 08:59:00,
2013-06-14 02:04:00,68.3,0.0,29.98,West,278,2.0,10.0,0,0.00,,,0.00,Weather View 32 v70,2013-06-14 09:04:00,
2013-06-14 02:09:00,68.1,0.0,29.98,WNW,288,1.0,10.0,0,0.00,,,0.00,Weather View 32 v70,2013-06-14 09:09:00,
2013-06-14 02:14:00,67.8,0.0,29.98,West,277,1.0,9.0,0,0.00,,,0.00,Weather View 32 v70,2013-06-14 09:14:00,
2013-06-14 02:19:00,67.4,0.0,29.98,WSW,246,0.0,9.0,0,0.00,,,0.00,Weather View 32 v70,2013-06-14 09:19:00,
2013-06-14 02:24:00,67.2,0.0,29.98,WSW,246,0.0,9.0,0,0.00,,,0.00,Weather View 32 v70,2013-06-14 09:24:00,
2013-06-14 02:29:00,66.9,0.0,29.98,WSW,246,0.0,9.0,0,0.00,,,0.00,Weather View 32 v70,2013-06-14 09:29:00,
2013-06-14 02:34:00,66.4,0.0,29.98,WSW,246,0.0,9.0,0,0.00,,,0.00,Weather View 32 v70,2013-06-14 09:34:00,
2013-06-14 02:39:00,65.9,0.0,29.97,WNW,297,1.0,9.0,0,0.00,,,0.00,Weather View 32 v70,2013-06-14 09:39:00,
2013-06-14 02:44:00,65.6,0.0,29.97,WNW,284,2.0,7.0,0,0.00,,,0.00,Weather View 32 v70,2013-06-14 09:44:00,
2013-06-14 02:49:00,65.8,0.0,29.97,WNW,298,0.0,5.0,0,0.00,,,0.00,Weather View 32 v70,2013-06-14 09:49:00,
2013-06-14 02:54:00,65.4,0.0,29.97,West,276,2.0,5.0,0,0.00,,,0.00,Weather View 32 v70,2013-06-14 09:54:00,
2013-06-14 02:59:00,65.3,0.0,29.97,WNW,283,0.0,5.0,0,0.00,,,0.00,Weather View 32 v70,2013-06-14 09:59:00,
2013-06-14 03:04:00,65.1,0.0,29.97,West,274,1.0,5.0,0,0.00,,,0.00,Weather View 32 v70,2013-06-14 10:04:00,
2013-06-14 03:09:00,65.0,0.0,29.97,West,277,1.0,4.0,0,0.00,,,0.00,Weather View 32 v70,2013-06-14 10:09:00,
2013-06-14 03:14:00,64.9,0.0,29.97,WNW,283,3.0,4.0,0,0.00,,,0.00,Weather View 32 v70,2013-06-14 10:14:00,
2013-06-14 03:19:00,64.2,0.0,29.97,West,274,0.0,4.0,0,0.00,,,0.00,Weather View 32 v70,2013-06-14 10:19:00,
2013-06-14 03:24:00,64.2,0.0,29.97,West,274,0.0,4.0,0,0.00,,,0.00,Weather View 32 v70,2013-06-14 10:24:00,
2013-06-14 03:30:00,64.0,0.0,29.97,West,274,0.0,4.0,0,0.00,,,0.00,Weather View 32 v70,2013-06-14 10:30:00,
2013-06-14 03:35:00,63.7,0.0,29.97,West,274,0.0,4.0,0,0.00,,,0.00,Weather View 32 v70,2013-06-14 10:35:00,
2013-06-14 03:40:00,63.3,0.0,29.97,West,274,0.0,4.0,0,0.00,,,0.00,Weather View 32 v70,2013-06-14 10:40:00,
2013-06-14 03:45:00,63.3,0.0,29.97,West,274,0.0,4.0,0,0.00,,,0.00,Weather View 32 v70,2013-06-14 10:45:00,
2013-06-14 03:50:00,63.1,0.0,29.97,West,274,0.0,4.0,0,0.00,,,0.00,Weather View 32 v70,2013-06-14 10:50:00,
2013-06-14 03:55:00,62.7,0.0,29.96,West,274,0.0,4.0,0,0.00,,,0.00,Weather View 32 v70,2013-06-14 10:55:00,
2013-06-14 04:00:00,62.7,0.0,29.96,West,274,0.0,3.0,0,0.00,,,0.00,Weather View 32 v70,2013-06-14 11:00:00,
2013-06-14 04:05:00,62.2,0.0,29.96,West,274,0.0,3.0,0,0.00,,,0.00,Weather View 32 v70,2013-06-14 11:05:00,
2013-06-14 04:10:00,61.7,0.0,29.97,West,274,0.0,3.0,0,0.00,,,0.00,Weather View 32 v70,2013-06-14 11:10:00,
2013-06-14 04:15:00,61.9,0.0,29.96,West,274,0.0,3.0,0,0.00,,,0.00,Weather View 32 v70,2013-06-14 11:15:00,
2013-06-14 04:20:00,62.0,0.0,29.97,West,274,0.0,0.0,0,0.00,,,0.00,Weather View 32 v70,2013-06-14 11:20:00,
2013-06-14 04:25:00,61.8,0.0,29.97,West,274,0.0,0.0,0,0.00,,,0.00,Weather View 32 v70,2013-06-14 11:25:00,
2013-06-14 04:30:00,61.3,0.0,29.97,West,274,0.0,0.0,0,0.00,,,0.00,Weather View 32 v70,2013-06-14 11:30:00,
2013-06-14 04:35:00,61.3,0.0,29.97,West,274,0.0,0.0,0,0.00,,,0.00,Weather View 32 v70,2013-06-14 11:35:00,
2013-06-14 04:40:00,61.2,0.0,29.97,West,274,0.0,0.0,0,0.00,,,0.00,Weather View 32 v70,2013-06-14 11:40:00,
2013-06-14 04:45:00,61.1,0.0,29.97,West,274,0.0,0.0,0,0.00,,,0.00,Weather View 32 v70,2013-06-14 11:45:00,
2013-06-14 04:50:00,61.3,0.0,29.97,West,274,0.0,0.0,0,0.00,,,0.00,Weather View 32 v70,2013-06-14 11:50:00,
2013-06-14 04:55:00,61.1,0.0,29.98,West,274,0.0,0.0,0,0.00,,,0.00,Weather View 32 v70,2013-06-14 11:55:00,
2013-06-14 05:00:00,60.7,0.0,29.98,West,274,0.0,0.0,0,0.00,,,0.00,Weather View 32 v70,2013-06-14 12:00:00,
2013-06-14 05:05:00,60.2,0.0,29.98,West,274,0.0,0.0,0,0.00,,,0.00,Weather View 32 v70,2013-06-14 12:05:00,
2013-06-14 05:10:00,60.0,0.0,29.98,West,274,0.0,0.0,0,0.00,,,0.00,Weather View 32 v70,2013-06-14 12:10:00,
2013-06-14 05:15:00,59.8,0.0,29.98,West,274,0.0,0.0,0,0.00,,,0.00,Weather View 32 v70,2013-06-14 12:15:00,
2013-06-14 05:20:00,59.6,0.0,29.98,West,274,0.0,0.0,0,0.00,,,0.00,Weather View 32 v70,2013-06-14 12:20:00,
2013-06-14 05:25:00,59.5,0.0,29.98,West,274,0.0,0.0,0,0.00,,,0.00,Weather View 32 v70,2013-06-14 12:25:00,
2013-06-14 05:30:00,59.5,0.0,29.98,West,274,0.0,0.0,0,0.00,,,0.00,Weather View 32 v70,2013-06-14 12:30:00,
2013-06-14 05:35:00,59.3,0.0,29.98,West,274,0.0,0.0,0,0.00,,,0.00,Weather View 32 v70,2013-06-14 12:35:00,
2013-06-14 05:40:00,58.7,0.0,29.98,West,274,0.0,0.0,0,0.00,,,0.00,Weather View 32 v70,2013-06-14 12:40:00,
2013-06-14 05:45:00,58.7,0.0,29.98,West,274,0.0,0.0,0,0.00,,,0.00,Weather View 32 v70,2013-06-14 12:45:00,
2013-06-14 05:50:00,58.4,0.0,29.98,West,274,0.0,0.0,0,0.00,,,0.00,Weather View 32 v70,2013-06-14 12:50:00,
2013-06-14 05:55:00,58.6,0.0,29.98,West,274,0.0,0.0,0,0.00,,,0.00,Weather View 32 v70,2013-06-14 12:55:00,
2013-06-14 06:00:00,58.8,0.0,29.98,West,274,0.0,0.0,0,0.00,,,0.00,Weather View 32 v70,2013-06-14 13:00:00,
2013-06-14 06:05:00,58.8,0.0,29.98,West,274,0.0,0.0,0,0.00,,,0.00,Weather View 32 v70,2013-06-14 13:05:00,
2013-06-14 06:10:00,58.5,0.0,29.98,West,274,0.0,0.0,0,0.00,,,0.00,Weather View 32 v70,2013-06-14 13:10:00,
2013-06-14 06:15:00,58.6,0.0,29.98,West,274,0.0,0.0,0,0.00,,,0.00,Weather View 32 v70,2013-06-14 13:15:00,
2013-06-14 06:20:00,58.6,0.0,29.98,West,274,0.0,0.0,0,0.00,,,0.00,Weather View 32 v70,2013-06-14 13:20:00,
2013-06-14 06:25:00,59.2,0.0,29.98,West,274,0.0,0.0,0,0.00,,,0.00,Weather View 32 v70,2013-06-14 13:25:00,
2013-06-14 06:30:00,59.5,0.0,29.98,West,274,0.0,0.0,0,0.00,,,0.00,Weather View 32 v70,2013-06-14 13:30:00,
2013-06-14 06:35:00,59.8,0.0,29.98,West,274,0.0,0.0,0,0.00,,,0.00,Weather View 32 v70,2013-06-14 13:35:00,
2013-06-14 06:40:00,60.6,0.0,29.98,West,274,0.0,0.0,0,0.00,,,0.00,Weather View 32 v70,2013-06-14 13:40:00,
2013-06-14 06:45:00,61.4,0.0,29.98,West,274,0.0,0.0,0,0.00,,,0.00,Weather View 32 v70,2013-06-14 13:45:00,
2013-06-14 06:50:00,61.7,0.0,29.98,West,274,0.0,0.0,0,0.00,,,0.00,Weather View 32 v70,2013-06-14 13:50:00,
2013-06-14 06:55:00,62.1,0.0,29.98,West,274,0.0,0.0,0,0.00,,,0.00,Weather View 32 v70,2013-06-14 13:55:00,
2013-06-14 07:00:00,62.4,0.0,29.98,West,274,0.0,0.0,0,0.00,,,0.00,Weather View 32 v70,2013-06-14 14:00:00,
2013-06-14 07:05:00,62.7,0.0,29.98,West,274,0.0,0.0,0,0.00,,,0.00,Weather View 32 v70,2013-06-14 14:05:00,
2013-06-14 07:10:00,63.3,0.0,29.98,ENE,77,3.0,6.0,0,0.00,,,0.00,Weather View 32 v70,2013-06-14 14:10:00,
2013-06-14 07:15:00,63.5,0.0,29.98,NE,55,2.0,6.0,0,0.00,,,0.00,Weather View 32 v70,2013-06-14 14:15:00,
2013-06-14 07:20:00,63.9,0.0,29.98,ESE,103,3.0,6.0,0,0.00,,,0.00,Weather View 32 v70,2013-06-14 14:20:00,
2013-06-14 07:25:00,64.4,0.0,29.98,ENE,59,1.0,6.0,0,0.00,,,0.00,Weather View 32 v70,2013-06-14 14:25:00,
2013-06-14 07:30:00,64.7,0.0,29.98,East,87,0.0,6.0,0,0.00,,,0.00,Weather View 32 v70,2013-06-14 14:30:00,
2013-06-14 07:35:00,65.1,0.0,29.98,ENE,77,0.0,6.0,0,0.00,,,0.00,Weather View 32 v70,2013-06-14 14:35:00,
2013-06-14 07:40:00,65.4,0.0,29.98,ENE,62,1.0,6.0,0,0.00,,,0.00,Weather View 32 v70,2013-06-14 14:40:00,
2013-06-14 07:45:00,66.1,0.0,29.97,ENE,62,0.0,6.0,0,0.00,,,0.00,Weather View 32 v70,2013-06-14 14:45:00,
2013-06-14 07:50:00,66.6,0.0,29.98,ENE,62,0.0,6.0,0,0.00,,,0.00,Weather View 32 v70,2013-06-14 14:50:00,
2013-06-14 07:55:00,67.4,0.0,29.98,SE,124,0.0,6.0,0,0.00,,,0.00,Weather View 32 v70,2013-06-14 14:55:00,
2013-06-14 08:00:00,67.7,0.0,29.97,South,184,2.0,6.0,0,0.00,,,0.00,Weather View 32 v70,2013-06-14 15:00:00,
2013-06-14 08:05:00,68.2,0.0,29.97,SSE,153,0.0,6.0,0,0.00,,,0.00,Weather View 32 v70,2013-06-14 15:05:00,
2013-06-14 08:10:00,68.5,0.0,29.97,SSE,155,0.0,5.0,0,0.00,,,0.00,Weather View 32 v70,2013-06-14 15:10:00,
2013-06-14 08:15:00,69.3,0.0,29.97,SE,134,2.0,5.0,0,0.00,,,0.00,Weather View 32 v70,2013-06-14 15:15:00,
2013-06-14 08:20:00,69.8,0.0,29.97,SSE,152,3.0,5.0,0,0.00,,,0.00,Weather View 32 v70,2013-06-14 15:20:00,
2013-06-14 08:25:00,70.2,0.0,29.97,SE,142,3.0,5.0,0,0.00,,,0.00,Weather View 32 v70,2013-06-14 15:25:00,
2013-06-14 08:30:00,70.9,0.0,29.97,ESE,105,1.0,5.0,0,0.00,,,0.00,Weather View 32 v70,2013-06-14 15:30:00,
2013-06-14 08:35:00,72.0,0.0,29.97,South,170,1.0,5.0,0,0.00,,,0.00,Weather View 32 v70,2013-06-14 15:35:00,
2013-06-14 08:40:00,72.0,0.0,29.97,SE,132,5.0,6.0,0,0.00,,,0.00,Weather View 32 v70,2013-06-14 15:40:00,
2013-06-14 08:45:00,72.7,0.0,29.97,SE,125,4.0,6.0,0,0.00,,,0.00,Weather View 32 v70,2013-06-14 15:45:00,
2013-06-14 08:50:00,72.8,0.0,29.98,SE,127,3.0,6.0,0,0.00,,,0.00,Weather View 32 v70,2013-06-14 15:50:00,
2013-06-14 08:55:00,73.4,0.0,29.98,East,97,2.0,6.0,0,0.00,,,0.00,Weather View 32 v70,2013-06-14 15:55:00,
2013-06-14 09:00:00,74.1,0.0,29.97,SSE,166,6.0,6.0,0,0.00,,,0.00,Weather View 32 v70,2013-06-14 16:00:00,
2013-06-14 09:05:00,74.3,0.0,29.97,ESE,113,3.0,6.0,0,0.00,,,0.00,Weather View 32 v70,2013-06-14 16:05:00,
2013-06-14 09:10:00,75.6,0.0,29.97,East,96,1.0,6.0,0,0.00,,,0.00,Weather View 32 v70,2013-06-14 16:10:00,
2013-06-14 09:15:00,76.2,0.0,29.97,SSE,159,2.0,6.0,0,0.00,,,0.00,Weather View 32 v70,2013-06-14 16:15:00,
2013-06-14 09:20:00,76.4,0.0,29.97,East,93,3.0,6.0,0,0.00,,,0.00,Weather View 32 v70,2013-06-14 16:20:00,
2013-06-14 09:25:00,76.8,0.0,29.97,SSE,148,5.0,6.0,0,0.00,,,0.00,Weather View 32 v70,2013-06-14 16:25:00,
2013-06-14 09:30:00,77.1,0.0,29.97,SE,127,3.0,6.0,0,0.00,,,0.00,Weather View 32 v70,2013-06-14 16:30:00,
2013-06-14 09:35:00,77.7,0.0,29.96,ESE,110,5.0,7.0,0,0.00,,,0.00,Weather View 32 v70,2013-06-14 16:35:00,
2013-06-14 09:40:00,78.1,0.0,29.96,ESE,104,4.0,7.0,0,0.00,,,0.00,Weather View 32 v70,2013-06-14 16:40:00,
2013-06-14 09:45:00,78.5,0.0,29.96,ESE,114,5.0,7.0,0,0.00,,,0.00,Weather View 32 v70,2013-06-14 16:45:00,
2013-06-14 09:50:00,79.7,0.0,29.96,ESE,118,2.0,8.0,0,0.00,,,0.00,Weather View 32 v70,2013-06-14 16:50:00,
2013-06-14 09:55:00,79.0,0.0,29.96,ESE,117,0.0,8.0,0,0.00,,,0.00,Weather View 32 v70,2013-06-14 16:55:00,
2013-06-14 10:00:00,80.3,0.0,29.96,ENE,72,3.0,8.0,0,0.00,,,0.00,Weather View 32 v70,2013-06-14 17:00:00,
2013-06-14 10:05:00,80.5,0.0,29.96,ESE,122,4.0,8.0,0,0.00,,,0.00,Weather View 32 v70,2013-06-14 17:05:00,
2013-06-14 10:10:00,80.5,0.0,29.95,SSE,166,3.0,8.0,0,0.00,,,0.00,Weather View 32 v70,2013-06-14 17:10:00,
2013-06-14 10:15:00,80.9,0.0,29.95,SSE,159,2.0,8.0,0,0.00,,,0.00,Weather View 32 v70,2013-06-14 17:15:00,
2013-06-14 10:20:00,81.6,0.0,29.95,ESE,107,4.0,8.0,0,0.00,,,0.00,Weather View 32 v70,2013-06-14 17:20:00,
2013-06-14 10:25:00,82.0,0.0,29.95,ESE,107,5.0,8.0,0,0.00,,,0.00,Weather View 32 v70,2013-06-14 17:25:00,
2013-06-14 10:30:00,82.4,0.0,29.95,ESE,114,7.0,8.0,0,0.00,,,0.00,Weather View 32 v70,2013-06-14 17:30:00,
2013-06-14 10:35:00,82.8,0.0,29.95,SW,214,3.0,8.0,0,0.00,,,0.00,Weather View 32 v70,2013-06-14 17:35:00,
2013-06-14 10:40:00,82.6,0.0,29.95,ESE,103,5.0,8.0,0,0.00,,,0.00,Weather View 32 v70,2013-06-14 17:40:00,
2013-06-14 10:45:00,83.5,0.0,29.95,East,79,1.0,8.0,0,0.00,,,0.00,Weather View 32 v70,2013-06-14 17:45:00,
2013-06-14 10:52:00,83.9,0.0,29.95,SE,142,3.0,8.0,0,0.00,,,0.00,Weather View 32 v70,2013-06-14 17:52:00,
2013-06-14 10:57:00,83.5,0.0,29.95,WSW,252,3.0,8.0,0,0.00,,,0.00,Weather View 32 v70,2013-06-14 17:57:00,
2013-06-14 11:02:00,83.5,0.0,29.95,SSE,153,9.0,11.0,0,0.00,,,0.00,Weather View 32 v70,2013-06-14 18:02:00,
2013-06-14 11:07:00,83.5,0.0,29.95,South,181,7.0,11.0,0,0.00,,,0.00,Weather View 32 v70,2013-06-14 18:07:00,
2013-06-14 11:12:00,83.4,0.0,29.95,South,177,5.0,11.0,0,0.00,,,0.00,Weather View 32 v70,2013-06-14 18:12:00,
2013-06-14 11:17:00,83.2,0.0,29.95,SSE,156,7.0,11.0,0,0.00,,,0.00,Weather View 32 v70,2013-06-14 18:17:00,
2013-06-14 11:22:00,83.4,0.0,29.95,South,170,3.0,11.0,0,0.00,,,0.00,Weather View 32 v70,2013-06-14 18:22:00,
2013-06-14 11:27:00,84.1,0.0,29.95,East,93,2.0,11.0,0,0.00,,,0.00,Weather View 32 v70,2013-06-14 18:27:00,
2013-06-14 11:32:00,85.0,0.0,29.94,South,184,7.0,11.0,0,0.00,,,0.00,Weather View 32 v70,2013-06-14 18:32:00,
2013-06-14 11:37:00,84.9,0.0,29.94,West,260,4.0,11.0,0,0.00,,,0.00,Weather View 32 v70,2013-06-14 18:37:00,
2013-06-14 11:42:00,86.3,0.0,29.94,SSE,150,3.0,11.0,0,0.00,,,0.00,Weather View 32 v70,2013-06-14 18:42:00,
2013-06-14 11:47:00,86.0,0.0,29.94,SW,222,5.0,11.0,0,0.00,,,0.00,Weather View 32 v70,2013-06-14 18:47:00,
2013-06-14 11:52:00,85.9,0.0,29.94,South,184,1.0,11.0,0,0.00,,,0.00,Weather View 32 v70,2013-06-14 18:52:00,
2013-06-14 11:57:00,87.1,0.0,29.94,South,180,5.0,11.0,0,0.00,,,0.00,Weather View 32 v70,2013-06-14 18:57:00,
2013-06-14 12:02:00,86.5,0.0,29.94,ESE,114,4.0,11.0,0,0.00,,,0.00,Weather View 32 v70,2013-06-14 19:02:00,
2013-06-14 12:07:00,87.1,0.0,29.94,ESE,118,6.0,11.0,0,0.00,,,0.00,Weather View 32 v70,2013-06-14 19:07:00,
2013-06-14 12:12:00,86.4,0.0,29.93,SE,131,3.0,10.0,0,0.00,,,0.00,Weather View 32 v70,2013-06-14 19:12:00,
2013-06-14 12:17:00,87.2,0.0,29.93,West,281,4.0,11.0,0,0.00,,,0.00,Weather View 32 v70,2013-06-14 19:17:00,
2013-06-14 12:22:00,87.3,0.0,29.93,West,263,4.0,11.0,0,0.00,,,0.00,Weather View 32 v70,2013-06-14 19:22:00,
2013-06-14 12:27:00,88.0,0.0,29.93,NNW,339,3.0,11.0,0,0.00,,,0.00,Weather View 32 v70,2013-06-14 19:27:00,
2013-06-14 12:32:00,87.7,0.0,29.93,ESE,121,1.0,11.0,0,0.00,,,0.00,Weather View 32 v70,2013-06-14 19:32:00,
2013-06-14 12:37:00,88.1,0.0,29.93,SSW,210,2.0,11.0,0,0.00,,,0.00,Weather View 32 v70,2013-06-14 19:37:00,
2013-06-14 12:42:00,86.9,0.0,29.92,South,183,8.0,11.0,0,0.00,,,0.00,Weather View 32 v70,2013-06-14 19:42:00,
2013-06-14 12:47:00,87.5,0.0,29.92,South,180,2.0,11.0,0,0.00,,,0.00,Weather View 32 v70,2013-06-14 19:47:00,
2013-06-14 12:52:00,88.4,0.0,29.92,ESE,120,5.0,11.0,0,0.00,,,0.00,Weather View 32 v70,2013-06-14 19:52:00,
2013-06-14 12:57:00,88.5,0.0,29.92,SSE,160,5.0,11.0,0,0.00,,,0.00,Weather View 32 v70,2013-06-14 19:57:00,
2013-06-14 13:02:00,88.5,0.0,29.92,South,184,5.0,11.0,0,0.00,,,0.00,Weather View 32 v70,2013-06-14 20:02:00,
2013-06-14 13:07:00,87.5,0.0,29.91,SW,215,4.0,11.0,0,0.00,,,0.00,Weather View 32 v70,2013-06-14 20:07:00,
2013-06-14 13:12:00,88.0,0.0,29.91,East,90,1.0,11.0,0,0.00,,,0.00,Weather View 32 v70,2013-06-14 20:12:00,
2013-06-14 13:17:00,88.4,0.0,29.91,SE,143,2.0,10.0,0,0.00,,,0.00,Weather View 32 v70,2013-06-14 20:17:00,
2013-06-14 13:22:00,87.6,0.0,29.90,SE,139,4.0,10.0,0,0.00,,,0.00,Weather View 32 v70,2013-06-14 20:22:00,
2013-06-14 13:27:00,88.8,0.0,29.90,ESE,108,1.0,10.0,0,0.00,,,0.00,Weather View 32 v70,2013-06-14 20:27:00,
2013-06-14 13:32:00,89.0,0.0,29.90,SW,217,4.0,10.0,0,0.00,,,0.00,Weather View 32 v70,2013-06-14 20:32:00,
2013-06-14 13:37:00,89.3,0.0,29.90,South,174,3.0,10.0,0,0.00,,,0.00,Weather View 32 v70,2013-06-14 20:37:00,
2013-06-14 13:42:00,89.4,0.0,29.90,SSE,150,10.0,10.0,0,0.00,,,0.00,Weather View 32 v70,2013-06-14 20:42:00,
2013-06-14 13:47:00,89.2,0.0,29.90,ESE,111,5.0,12.0,0,0.00,,,0.00,Weather View 32 v70,2013-06-14 20:47:00,
2013-06-14 13:52:00,89.7,0.0,29.90,East,89,9.0,12.0,0,0.00,,,0.00,Weather View 32 v70,2013-06-14 20:52:00,
2013-06-14 13:57:00,90.1,0.0,29.90,South,174,6.0,12.0,0,0.00,,,0.00,Weather View 32 v70,2013-06-14 20:57:00,
2013-06-14 14:02:00,89.9,0.0,29.89,East,89,9.0,12.0,0,0.00,,,0.00,Weather View 32 v70,2013-06-14 21:02:00,
2013-06-14 14:07:00,89.7,0.0,29.89,SE,136,3.0,12.0,0,0.00,,,0.00,Weather View 32 v70,2013-06-14 21:07:00,
2013-06-14 14:12:00,90.1,0.0,29.89,SE,128,5.0,12.0,0,0.00,,,0.00,Weather View 32 v70,2013-06-14 21:12:00,
2013-06-14 14:17:00,89.9,0.0,29.89,NE,51,4.0,12.0,0,0.00,,,0.00,Weather View 32 v70,2013-06-14 21:17:00,
2013-06-14 14:22:00,89.9,0.0,29.88,East,91,2.0,12.0,0,0.00,,,0.00,Weather View 32 v70,2013-06-14 21:22:00,
2013-06-14 14:27:00,89.7,0.0,29.88,SSE,153,5.0,12.0,0,0.00,,,0.00,Weather View 32 v70,2013-06-14 21:27:00,
2013-06-14 14:32:00,90.9,0.0,29.88,South,179,4.0,12.0,0,0.00,,,0.00,Weather View 32 v70,2013-06-14 21:32:00,
2013-06-14 14:37:00,91.4,0.0,29.88,SSE,148,5.0,12.0,0,0.00,,,0.00,Weather View 32 v70,2013-06-14 21:37:00,
2013-06-14 14:42:00,91.3,0.0,29.88,South,186,6.0,12.0,0,0.00,,,0.00,Weather View 32 v70,2013-06-14 21:42:00,
2013-06-14 14:47:00,90.6,0.0,29.87,East,100,4.0,11.0,0,0.00,,,0.00,Weather View 32 v70,2013-06-14 21:47:00,
2013-06-14 14:52:00,91.3,0.0,29.87,East,101,4.0,11.0,0,0.00,,,0.00,Weather View 32 v70,2013-06-14 21:52:00,
2013-06-14 14:57:00,92.0,0.0,29.87,East,101,5.0,11.0,0,0.00,,,0.00,Weather View 32 v70,2013-06-14 21:57:00,
2013-06-14 15:02:00,92.8,0.0,29.87,SSE,160,4.0,11.0,0,0.00,,,0.00,Weather View 32 v70,2013-06-14 22:02:00,
2013-06-14 15:07:00,92.0,0.0,29.86,South,184,4.0,10.0,0,0.00,,,0.00,Weather View 32 v70,2013-06-14 22:07:00,
2013-06-14 15:12:00,91.9,0.0,29.86,SE,136,5.0,9.0,0,0.00,,,0.00,Weather View 32 v70,2013-06-14 22:12:00,
2013-06-14 15:17:00,91.4,0.0,29.86,SE,125,7.0,12.0,0,0.00,,,0.00,Weather View 32 v70,2013-06-14 22:17:00,
2013-06-14 15:22:00,91.7,0.0,29.86,ENE,66,4.0,12.0,0,0.00,,,0.00,Weather View 32 v70,2013-06-14 22:22:00,
2013-06-14 15:27:00,92.2,0.0,29.86,East,101,5.0,12.0,0,0.00,,,0.00,Weather View 32 v70,2013-06-14 22:27:00,
2013-06-14 15:32:00,91.8,0.0,29.85,SSW,194,5.0,12.0,0,0.00,,,0.00,Weather View 32 v70,2013-06-14 22:32:00,
2013-06-14 15:37:00,91.7,0.0,29.85,SW,226,2.0,12.0,0,0.00,,,0.00,Weather View 32 v70,2013-06-14 22:37:00,
2013-06-14 15:42:00,92.8,0.0,29.85,West,276,7.0,12.0,0,0.00,,,0.00,Weather View 32 v70,2013-06-14 22:42:00,
2013-06-14 15:47:00,93.5,0.0,29.85,WSW,240,4.0,12.0,0,0.00,,,0.00,Weather View 32 v70,2013-06-14 22:47:00,
2013-06-14 15:52:00,92.3,0.0,29.85,SSW,193,6.0,13.0,0,0.00,,,0.00,Weather View 32 v70,2013-06-14 22:52:00,
2013-06-14 15:57:00,92.1,0.0,29.85,West,274,7.0,13.0,0,0.00,,,0.00,Weather View 32 v70,2013-06-14 22:57:00,
2013-06-14 16:02:00,90.7,0.0,29.85,SW,215,7.0,13.0,0,0.00,,,0.00,Weather View 32 v70,2013-06-14 23:02:00,
2013-06-14 16:07:00,91.3,0.0,29.84,WSW,248,5.0,16.0,0,0.00,,,0.00,Weather View 32 v70,2013-06-14 23:07:00,
2013-06-14 16:12:00,90.7,0.0,29.84,West,277,6.0,16.0,0,0.00,,,0.00,Weather View 32 v70,2013-06-14 23:12:00,
2013-06-14 16:17:00,90.2,0.0,29.84,SW,225,12.0,16.0,0,0.00,,,0.00,Weather View 32 v70,2013-06-14 23:17:00,
2013-06-14 16:22:00,91.0,0.0,29.84,WSW,242,2.0,16.0,0,0.00,,,0.00,Weather View 32 v70,2013-06-14 23:22:00,
2013-06-14 16:27:00,90.4,0.0,29.84,WNW,300,6.0,18.0,0,0.00,,,0.00,Weather View 32 v70,2013-06-14 23:27:00,
2013-06-14 16:30:00,90.9,0.0,29.84,WSW,250,4.0,18.0,0,0.00,,,0.00,Weather View 32 v70,2013-06-14 23:30:00,
2013-06-14 16:32:00,91.1,0.0,29.83,WNW,300,8.0,18.0,0,0.00,,,0.00,Weather View 32 v70,2013-06-14 23:32:00,
2013-06-14 16:37:00,90.8,0.0,29.83,WSW,242,5.0,18.0,0,0.00,,,0.00,Weather View 32 v70,2013-06-14 23:37:00,
2013-06-14 16:42:00,91.2,0.0,29.83,SW,224,9.0,18.0,0,0.00,,,0.00,Weather View 32 v70,2013-06-14 23:42:00,
2013-06-14 16:47:00,90.2,0.0,29.83,WSW,248,5.0,18.0,0,0.00,,,0.00,Weather View 32 v70,2013-06-14 23:47:00,
2013-06-14 16:52:00,89.9,0.0,29.83,South,191,11.0,18.0,0,0.00,,,0.00,Weather View 32 v70,2013-06-14 23:52:00,
2013-06-14 16:57:00,87.7,0.0,29.83,West,259,7.0,18.0,0,0.00,,,0.00,Weather View 32 v70,2013-06-14 23:57:00,
2013-06-14 17:02:00,86.8,0.0,29.83,West,280,5.0,18.0,0,0.00,,,0.00,Weather View 32 v70,2013-06-15 00:02:00,
2013-06-14 17:07:00,85.6,0.0,29.83,SSW,201,2.0,18.0,0,0.00,,,0.00,Weather View 32 v70,2013-06-15 00:07:00,
2013-06-14 17:12:00,85.3,0.0,29.83,NW,307,6.0,18.0,0,0.00,,,0.00,Weather View 32 v70,2013-06-15 00:12:00,
2013-06-14 17:17:00,85.0,0.0,29.83,West,262,8.0,18.0,0,0.00,,,0.00,Weather View 32 v70,2013-06-15 00:17:00,
2013-06-14 17:22:00,83.6,0.0,29.83,WSW,249,5.0,18.0,0,0.00,,,0.00,Weather View 32 v70,2013-06-15 00:22:00,
2013-06-14 17:27:00,83.9,0.0,29.83,SW,235,2.0,17.0,0,0.00,,,0.00,Weather View 32 v70,2013-06-15 00:27:00,
2013-06-14 17:32:00,84.4,0.0,29.83,SW,214,6.0,17.0,0,0.00,,,0.00,Weather View 32 v70,2013-06-15 00:32:00,
2013-06-14 17:37:00,84.9,0.0,29.83,SW,222,5.0,17.0,0,0.00,,,0.00,Weather View 32 v70,2013-06-15 00:37:00,
2013-06-14 17:42:00,84.8,0.0,29.83,WSW,253,5.0,17.0,0,0.00,,,0.00,Weather View 32 v70,2013-06-15 00:42:00,
2013-06-14 17:47:00,84.5,0.0,29.83,West,264,7.0,17.0,0,0.00,,,0.00,Weather View 32 v70,2013-06-15 00:47:00,
2013-06-14 17:52:00,84.6,0.0,29.83,SW,233,6.0,17.0,0,0.00,,,0.00,Weather View 32 v70,2013-06-15 00:52:00,
2013-06-14 17:57:00,84.9,0.0,29.82,WSW,245,3.0,17.0,0,0.00,,,0.00,Weather View 32 v70,2013-06-15 00:57:00,
2013-06-14 18:02:00,85.8,0.0,29.82,WNW,285,1.0,17.0,0,0.00,,,0.00,Weather View 32 v70,2013-06-15 01:02:00,
2013-06-14 18:07:00,85.4,0.0,29.82,WSW,238,6.0,16.0,0,0.00,,,0.00,Weather View 32 v70,2013-06-15 01:07:00,
2013-06-14 18:12:00,84.9,0.0,29.82,SW,219,2.0,16.0,0,0.00,,,0.00,Weather View 32 v70,2013-06-15 01:12:00,
2013-06-14 18:17:00,85.2,0.0,29.82,West,271,6.0,16.0,0,0.00,,,0.00,Weather View 32 v70,2013-06-15 01:17:00,
2013-06-14 18:22:00,85.5,0.0,29.82,SW,231,6.0,12.0,0,0.00,,,0.00,Weather View 32 v70,2013-06-15 01:22:00,
2013-06-14 18:27:00,84.6,0.0,29.82,SSW,203,5.0,12.0,0,0.00,,,0.00,Weather View 32 v70,2013-06-15 01:27:00,
2013-06-14 18:32:00,84.9,0.0,29.81,WSW,245,8.0,12.0,0,0.00,,,0.00,Weather View 32 v70,2013-06-15 01:32:00,
2013-06-14 18:37:00,84.7,0.0,29.82,SW,226,2.0,12.0,0,0.00,,,0.00,Weather View 32 v70,2013-06-15 01:37:00,
2013-06-14 18:42:00,83.9,0.0,29.81,SSW,210,2.0,12.0,0,0.00,,,0.00,Weather View 32 v70,2013-06-15 01:42:00,
2013-06-14 18:47:00,83.7,0.0,29.81,West,260,6.0,12.0,0,0.00,,,0.00,Weather View 32 v70,2013-06-15 01:47:00,
2013-06-14 18:52:00,84.1,0.0,29.81,WNW,297,4.0,12.0,0,0.00,,,0.00,Weather View 32 v70,2013-06-15 01:52:00,
2013-06-14 18:57:00,83.8,0.0,29.81,West,260,6.0,12.0,0,0.00,,,0.00,Weather View 32 v70,2013-06-15 01:57:00,
2013-06-14 19:02:00,83.6,0.0,29.81,West,274,7.0,12.0,0,0.00,,,0.00,Weather View 32 v70,2013-06-15 02:02:00,
2013-06-14 19:07:00,83.3,0.0,29.81,WSW,242,3.0,12.0,0,0.00,,,0.00,Weather View 32 v70,2013-06-15 02:07:00,
2013-06-14 19:12:00,82.4,0.0,29.81,West,259,6.0,12.0,0,0.00,,,0.00,Weather View 32 v70,2013-06-15 02:12:00,
2013-06-14 19:17:00,82.4,0.0,29.82,WSW,253,7.0,12.0,0,0.00,,,0.00,Weather View 32 v70,2013-06-15 02:17:00,
2013-06-14 19:22:00,82.1,0.0,29.82,West,266,8.0,12.0,0,0.00,,,0.00,Weather View 32 v70,2013-06-15 02:22:00,
2013-06-14 19:27:00,81.9,0.0,29.82,WNW,287,4.0,12.0,0,0.00,,,0.00,Weather View 32 v70,2013-06-15 02:27:00,
2013-06-14 19:32:00,81.3,0.0,29.82,West,266,4.0,12.0,0,0.00,,,0.00,Weather View 32 v70,2013-06-15 02:32:00,
2013-06-14 19:37:00,81.0,0.0,29.82,West,266,4.0,12.0,0,0.00,,,0.00,Weather View 32 v70,2013-06-15 02:37:00,
2013-06-14 19:42:00,80.7,0.0,29.82,West,270,6.0,12.0,0,0.00,,,0.00,Weather View 32 v70,2013-06-15 02:42:00,
2013-06-14 19:47:00,80.4,0.0,29.82,West,264,4.0,12.0,0,0.00,,,0.00,Weather View 32 v70,2013-06-15 02:47:00,
2013-06-14 19:52:00,80.2,0.0,29.82,West,281,2.0,11.0,0,0.00,,,0.00,Weather View 32 v70,2013-06-15 02:52:00,
2013-06-14 19:57:00,79.8,0.0,29.82,West,274,4.0,11.0,0,0.00,,,0.00,Weather View 32 v70,2013-06-15 02:57:00,
2013-06-14 20:02:00,79.7,0.0,29.82,West,267,3.0,10.0,0,0.00,,,0.00,Weather View 32 v70,2013-06-15 03:02:00,
2013-06-14 20:07:00,79.3,0.0,29.82,West,270,3.0,10.0,0,0.00,,,0.00,Weather View 32 v70,2013-06-15 03:07:00,
2013-06-14 20:12:00,78.9,0.0,29.82,West,269,1.0,10.0,0,0.00,,,0.00,Weather View 32 v70,2013-06-15 03:12:00,
2013-06-14 20:17:00,78.3,0.0,29.82,SW,236,2.0,10.0,0,0.00,,,0.00,Weather View 32 v70,2013-06-15 03:17:00,
2013-06-14 20:22:00,78.1,0.0,29.82,WSW,252,2.0,9.0,0,0.00,,,0.00,Weather View 32 v70,2013-06-15 03:22:00,
2013-06-14 20:27:00,78.2,0.0,29.82,SW,222,3.0,9.0,0,0.00,,,0.00,Weather View 32 v70,2013-06-15 03:27:00,
2013-06-14 20:32:00,77.7,0.0,29.82,West,259,2.0,9.0,0,0.00,,,0.00,Weather View 32 v70,2013-06-15 03:32:00,
2013-06-14 20:37:00,77.3,0.0,29.82,West,271,0.0,9.0,0,0.00,,,0.00,Weather View 32 v70,2013-06-15 03:37:00,
2013-06-14 20:42:00,77.0,0.0,29.82,WNW,284,1.0,8.0,0,0.00,,,0.00,Weather View 32 v70,2013-06-15 03:42:00,
2013-06-14 20:47:00,76.7,0.0,29.82,West,266,5.0,8.0,0,0.00,,,0.00,Weather View 32 v70,2013-06-15 03:47:00,
2013-06-14 20:52:00,76.7,0.0,29.81,SW,236,0.0,8.0,0,0.00,,,0.00,Weather View 32 v70,2013-06-15 03:52:00,
2013-06-14 20:57:00,76.3,0.0,29.81,WNW,285,1.0,8.0,0,0.00,,,0.00,Weather View 32 v70,2013-06-15 03:57:00,
2013-06-14 21:01:00,76.1,0.0,29.81,SW,225,0.0,8.0,0,0.00,,,0.00,Weather View 32 v70,2013-06-15 04:01:00,
2013-06-14 21:03:00,75.7,0.0,29.81,WSW,239,1.0,7.0,0,0.00,,,0.00,Weather View 32 v70,2013-06-15 04:03:00,
2013-06-14 21:08:00,75.5,0.0,29.81,WSW,243,3.0,7.0,0,0.00,,,0.00,Weather View 32 v70,2013-06-15 04:08:00,
2013-06-14 21:13:00,75.2,0.0,29.81,West,278,2.0,7.0,0,0.00,,,0.00,Weather View 32 v70,2013-06-15 04:13:00,
2013-06-14 21:18:00,74.7,0.0,29.81,West,260,2.0,7.0,0,0.00,,,0.00,Weather View 32 v70,2013-06-15 04:18:00,
2013-06-14 21:23:00,74.2,0.0,29.81,SSW,211,0.0,7.0,0,0.00,,,0.00,Weather View 32 v70,2013-06-15 04:23:00,
2013-06-14 21:28:00,74.0,0.0,29.82,SW,221,0.0,7.0,0,0.00,,,0.00,Weather View 32 v70,2013-06-15 04:28:00,
2013-06-14 21:33:00,73.7,0.0,29.82,WNW,284,3.0,6.0,0,0.00,,,0.00,Weather View 32 v70,2013-06-15 04:33:00,
2013-06-14 21:38:00,73.4,0.0,29.82,WSW,243,0.0,6.0,0,0.00,,,0.00,Weather View 32 v70,2013-06-15 04:38:00,
2013-06-14 21:43:00,73.2,0.0,29.82,WSW,250,0.0,6.0,0,0.00,,,0.00,Weather View 32 v70,2013-06-15 04:43:00,
2013-06-14 21:48:00,73.2,0.0,29.82,West,271,2.0,6.0,0,0.00,,,0.00,Weather View 32 v70,2013-06-15 04:48:00,
2013-06-14 21:53:00,72.7,0.0,29.82,WSW,256,0.0,6.0,0,0.00,,,0.00,Weather View 32 v70,2013-06-15 04:53:00,
2013-06-14 21:58:00,72.3,0.0,29.83,WSW,252,1.0,5.0,0,0.00,,,0.00,Weather View 32 v70,2013-06-15 04:58:00,
2013-06-14 22:03:00,72.0,0.0,29.83,West,266,2.0,5.0,0,0.00,,,0.00,Weather View 32 v70,2013-06-15 05:03:00,
2013-06-14 22:08:00,71.5,0.0,29.83,WSW,242,0.0,5.0,0,0.00,,,0.00,Weather View 32 v70,2013-06-15 05:08:00,
2013-06-14 22:13:00,71.3,0.0,29.83,West,259,0.0,5.0,0,0.00,,,0.00,Weather View 32 v70,2013-06-15 05:13:00,
2013-06-14 22:18:00,70.6,0.0,29.83,West,259,0.0,5.0,0,0.00,,,0.00,Weather View 32 v70,2013-06-15 05:18:00,
2013-06-14 22:23:00,69.5,0.0,29.84,SSW,204,1.0,5.0,0,0.00,,,0.00,Weather View 32 v70,2013-06-15 05:23:00,
2013-06-14 22:28:00,69.2,0.0,29.84,SW,215,1.0,5.0,0,0.00,,,0.00,Weather View 32 v70,2013-06-15 05:28:00,
2013-06-14 22:33:00,69.5,0.0,29.84,West,274,2.0,6.0,0,0.00,,,0.00,Weather View 32 v70,2013-06-15 05:33:00,
2013-06-14 22:38:00,68.9,0.0,29.84,West,278,0.0,6.0,0,0.00,,,0.00,Weather View 32 v70,2013-06-15 05:38:00,
2013-06-14 22:43:00,68.3,0.0,29.84,West,266,2.0,6.0,0,0.00,,,0.00,Weather View 32 v70,2013-06-15 05:43:00,
2013-06-14 22:48:00,68.4,0.0,29.84,West,273,6.0,7.0,0,0.00,,,0.00,Weather View 32 v70,2013-06-15 05:48:00,
2013-06-14 22:53:00,67.9,0.0,29.84,WSW,253,2.0,7.0,0,0.00,,,0.00,Weather View 32 v70,2013-06-15 05:53:00,
2013-06-14 22:58:00,67.9,0.0,29.84,West,259,3.0,7.0,0,0.00,,,0.00,Weather View 32 v70,2013-06-15 05:58:00,
2013-06-14 23:03:00,67.8,0.0,29.84,WSW,245,0.0,7.0,0,0.00,,,0.00,Weather View 32 v70,2013-06-15 06:03:00,
2013-06-14 23:08:00,67.4,0.0,29.84,West,262,0.0,7.0,0,0.00,,,0.00,Weather View 32 v70,2013-06-15 06:08:00,
2013-06-14 23:13:00,67.0,0.0,29.84,SW,233,0.0,7.0,0,0.00,,,0.00,Weather View 32 v70,2013-06-15 06:13:00,
2013-06-14 23:18:00,66.9,0.0,29.84,SW,233,0.0,7.0,0,0.00,,,0.00,Weather View 32 v70,2013-06-15 06:18:00,
2013-06-14 23:23:00,66.2,0.0,29.84,WNW,290,0.0,7.0,0,0.00,,,0.00,Weather View 32 v70,2013-06-15 06:23:00,
2013-06-14 23:28:00,66.4,0.0,29.84,SW,226,0.0,7.0,0,0.00,,,0.00,Weather View 32 v70,2013-06-15 06:28:00,
2013-06-14 23:33:00,65.9,0.0,29.84,WSW,257,2.0,7.0,0,0.00,,,0.00,Weather View 32 v70,2013-06-15 06:33:00,
2013-06-14 23:38:00,66.4,0.0,29.84,West,263,1.0,7.0,0,0.00,,,0.00,Weather View 32 v70,2013-06-15 06:38:00,
2013-06-14 23:43:00,66.0,0.0,29.84,West,270,3.0,7.0,0,0.00,,,0.00,Weather View 32 v70,2013-06-15 06:43:00,
2013-06-14 23:48:00,65.5,0.0,29.84,West,269,2.0,6.0,0,0.00,,,0.00,Weather View 32 v70,2013-06-15 06:48:00,
2013-06-14 23:53:00,65.3,0.0,29.84,West,259,0.0,5.0,0,0.00,,,0.00,Weather View 32 v70,2013-06-15 06:53:00,
2013-06-14 23:58:00,65.3,0.0,29.84,WSW,257,4.0,5.0,0,0.00,,,0.00,Weather View 32 v70,2013-06-15 06:58:00,